When you browse on this site, cookies collect data to enhance your experience and personalize the content and advertising you see.
Visit our Privacy Policy to learn more. By continuing to use the site, you agree to this use of cookies and data.
  • In Austria
  • List of Countries
  • For 7 days
  • Water Temperature
  • Weather Map
  • News
  • Weather Widgets
  • user-avatar
    Login

    Hourly Weather Pleven

    Today, 24 October, Thursday

    Time Temperature Precipitation Wind Pressure Humidity
    00:00 +16°C° 0 mm 1 mps 749 mmHg 47%
    01:00 +16°C° 0 mm 1 mps 749 mmHg 48%
    02:00 +15°C° 0 mm 1 mps 749 mmHg 49%
    03:00 +15°C° 0 mm 1 mps 749 mmHg 50%
    04:00 +15°C° 0 mm 1 mps 749 mmHg 50%
    05:00 +14°C° 0 mm 1 mps 749 mmHg 51%
    06:00 +15°C° 0 mm 1 mps 749 mmHg 50%
    07:00 +16°C° 0 mm 1 mps 749 mmHg 48%
    08:00 +15°C° 0 mm 0 mps 749 mmHg 47%
    09:00 +20°C° 0 mm 1 mps 749 mmHg 41%
    10:00 +22°C° 0 mm 1 mps 749 mmHg 35%
    11:00 +25°C° 0 mm 1 mps 748 mmHg 29%
    12:00 +26°C° 0 mm 1 mps 748 mmHg 27%
    13:00 +27°C° 0 mm 2 mps 748 mmHg 24%
    14:00 +28°C° 0 mm 2 mps 747 mmHg 22%
    15:00 +26°C° 0 mm 2 mps 747 mmHg 24%
    16:00 +25°C° 0 mm 2 mps 747 mmHg 27%
    17:00 +24°C° 0 mm 2 mps 746 mmHg 29%
    18:00 +21°C° 0 mm 2 mps 746 mmHg 32%
    19:00 +20°C° 0 mm 2 mps 747 mmHg 35%
    20:00 +19°C° 0 mm 1 mps 747 mmHg 38%
    21:00 +18°C° 0 mm 1 mps 747 mmHg 40%
    22:00 +18°C° 0 mm 1 mps 747 mmHg 41%
    23:00 +16°C° 0 mm 1 mps 747 mmHg 43%

    Tomorrow, 25 October, Friday

    Time Temperature Precipitation Wind Pressure Humidity
    00:00 +16°C° 0 mm 1 mps 747 mmHg 44%
    01:00 +16°C° 0 mm 1 mps 747 mmHg 45%
    02:00 +15°C° 0 mm 1 mps 747 mmHg 47%
    03:00 +15°C° 0 mm 1 mps 747 mmHg 48%
    04:00 +14°C° 0 mm 1 mps 747 mmHg 49%
    05:00 +14°C° 0 mm 1 mps 747 mmHg 50%
    06:00 +14°C° 0 mm 1 mps 747 mmHg 49%
    07:00 +15°C° 0 mm 1 mps 747 mmHg 48%
    08:00 +15°C° 0 mm 1 mps 747 mmHg 48%
    09:00 +19°C° 0 mm 1 mps 748 mmHg 42%
    10:00 +21°C° 0 mm 1 mps 748 mmHg 37%
    11:00 +23°C° 0 mm 1 mps 748 mmHg 31%
    12:00 +24°C° 0 mm 1 mps 748 mmHg 29%
    13:00 +25°C° 0 mm 1 mps 747 mmHg 28%
    14:00 +26°C° 0 mm 2 mps 747 mmHg 26%
    15:00 +25°C° 0 mm 1 mps 747 mmHg 28%
    16:00 +23°C° 0 mm 1 mps 747 mmHg 31%
    17:00 +22°C° 0 mm 1 mps 747 mmHg 33%
    18:00 +21°C° 0 mm 1 mps 747 mmHg 36%
    19:00 +20°C° 0 mm 1 mps 748 mmHg 39%
    20:00 +18°C° 0 mm 1 mps 748 mmHg 42%
    21:00 +18°C° 0 mm 1 mps 749 mmHg 43%
    22:00 +16°C° 0 mm 1 mps 749 mmHg 45%
    23:00 +16°C° 0 mm 1 mps 749 mmHg 46%

    Day after tomorrow, 26 October, Saturday

    Time Temperature Precipitation Wind Pressure Humidity
    00:00 +15°C° 0 mm 1 mps 749 mmHg 47%
    01:00 +15°C° 0 mm 1 mps 749 mmHg 48%
    02:00 +15°C° 0 mm 1 mps 749 mmHg 49%
    03:00 +14°C° 0 mm 1 mps 750 mmHg 50%
    04:00 +14°C° 0 mm 1 mps 750 mmHg 51%
    05:00 +13°C° 0 mm 1 mps 750 mmHg 52%
    06:00 +14°C° 0 mm 1 mps 750 mmHg 51%
    07:00 +15°C° 0 mm 1 mps 750 mmHg 50%
    08:00 +15°C° 0 mm 1 mps 751 mmHg 49%
    09:00 +19°C° 0 mm 1 mps 751 mmHg 43%
    10:00 +21°C° 0 mm 1 mps 751 mmHg 37%
    11:00 +23°C° 0 mm 1 mps 751 mmHg 31%
    12:00 +24°C° 0 mm 1 mps 751 mmHg 29%
    13:00 +25°C° 0 mm 1 mps 751 mmHg 27%
    14:00 +26°C° 0 mm 1 mps 750 mmHg 24%
    15:00 +25°C° 0 mm 1 mps 750 mmHg 27%
    16:00 +23°C° 0 mm 1 mps 750 mmHg 29%
    17:00 +22°C° 0 mm 1 mps 749 mmHg 32%
    18:00 +21°C° 0 mm 1 mps 750 mmHg 35%
    19:00 +19°C° 0 mm 1 mps 750 mmHg 38%
    20:00 +18°C° 0 mm 1 mps 750 mmHg 41%
    21:00 +16°C° 0 mm 1 mps 750 mmHg 42%
    22:00 +16°C° 0 mm 1 mps 750 mmHg 44%
    23:00 +16°C° 0 mm 1 mps 750 mmHg 46%

    27 October, Sunday

    Time Temperature Precipitation Wind Pressure Humidity
    00:00 +15°C° 0 mm 1 mps 750 mmHg 47%
    01:00 +15°C° 0 mm 1 mps 750 mmHg 48%
    02:00 +15°C° 0 mm 1 mps 750 mmHg 49%
    03:00 +14°C° 0 mm 1 mps 750 mmHg 50%
    04:00 +14°C° 0 mm 1 mps 750 mmHg 50%
    05:00 +14°C° 0 mm 1 mps 750 mmHg 51%
    06:00 +14°C° 0 mm 1 mps 750 mmHg 50%
    07:00 +15°C° 0 mm 1 mps 750 mmHg 48%
    08:00 +14°C° 0 mm 0 mps 750 mmHg 47%
    09:00 +17°C° 0 mm 0 mps 750 mmHg 41%
    10:00 +19°C° 0 mm 0 mps 750 mmHg 34%
    11:00 +24°C° 0 mm 1 mps 750 mmHg 28%
    12:00 +25°C° 0 mm 1 mps 749 mmHg 26%
    13:00 +26°C° 0 mm 1 mps 749 mmHg 24%
    14:00 +27°C° 0 mm 1 mps 748 mmHg 22%
    15:00 +25°C° 0 mm 1 mps 748 mmHg 25%
    16:00 +24°C° 0 mm 1 mps 747 mmHg 27%
    17:00 +22°C° 0 mm 1 mps 747 mmHg 30%
    18:00 +21°C° 0 mm 1 mps 747 mmHg 33%
    19:00 +20°C° 0 mm 1 mps 747 mmHg 36%
    20:00 +18°C° 0 mm 1 mps 747 mmHg 39%
    21:00 +18°C° 0 mm 1 mps 747 mmHg 40%
    22:00 +16°C° 0 mm 1 mps 747 mmHg 41%
    23:00 +16°C° 0 mm 1 mps 747 mmHg 43%

    28 October, Monday

    Time Temperature Precipitation Wind Pressure Humidity
    00:00 +15°C° 0 mm 1 mps 747 mmHg 43%
    01:00 +15°C° 0 mm 1 mps 746 mmHg 44%
    02:00 +15°C° 0 mm 1 mps 746 mmHg 45%
    03:00 +14°C° 0 mm 1 mps 746 mmHg 45%
    04:00 +14°C° 0 mm 1 mps 746 mmHg 46%
    05:00 +13°C° 0 mm 1 mps 745 mmHg 46%
    06:00 +14°C° 0 mm 1 mps 745 mmHg 45%
    07:00 +14°C° 0 mm 1 mps 745 mmHg 44%
    08:00 +15°C° 0 mm 1 mps 745 mmHg 43%
    09:00 +18°C° 0 mm 1 mps 745 mmHg 37%
    10:00 +21°C° 0 mm 1 mps 745 mmHg 31%
    11:00 +24°C° 0 mm 1 mps 745 mmHg 26%
    12:00 +25°C° 0 mm 1 mps 744 mmHg 24%
    13:00 +25°C° 0 mm 1 mps 744 mmHg 23%
    14:00 +26°C° 0 mm 1 mps 743 mmHg 21%
    15:00 +25°C° 0 mm 1 mps 743 mmHg 23%
    16:00 +23°C° 0 mm 1 mps 743 mmHg 26%
    17:00 +22°C° 0 mm 1 mps 742 mmHg 29%
    18:00 +21°C° 0 mm 1 mps 743 mmHg 30%
    19:00 +19°C° 0 mm 1 mps 743 mmHg 32%
    20:00 +18°C° 0 mm 1 mps 743 mmHg 34%
    21:00 +18°C° 0 mm 1 mps 743 mmHg 35%
    22:00 +18°C° 0 mm 1 mps 743 mmHg 36%
    23:00 +16°C° 0 mm 1 mps 743 mmHg 37%

    29 October, Tuesday

    Time Temperature Precipitation Wind Pressure Humidity
    00:00 +16°C° 0 mm 1 mps 743 mmHg 38%
    01:00 +16°C° 0 mm 1 mps 743 mmHg 38%
    02:00 +15°C° 0 mm 1 mps 743 mmHg 39%
    03:00 +15°C° 0 mm 1 mps 743 mmHg 40%
    04:00 +14°C° 0 mm 1 mps 743 mmHg 41%
    05:00 +14°C° 0 mm 1 mps 743 mmHg 42%
    06:00 +14°C° 0 mm 1 mps 743 mmHg 42%
    07:00 +14°C° 0 mm 1 mps 743 mmHg 42%
    08:00 +14°C° 0 mm 1 mps 744 mmHg 43%
    09:00 +18°C° 0 mm 1 mps 744 mmHg 38%
    10:00 +20°C° 0 mm 1 mps 744 mmHg 33%
    11:00 +23°C° 0 mm 1 mps 744 mmHg 28%
    12:00 +23°C° 0 mm 1 mps 744 mmHg 27%
    13:00 +24°C° 0 mm 1 mps 743 mmHg 25%
    14:00 +25°C° 0 mm 1 mps 743 mmHg 24%
    15:00 +24°C° 0 mm 1 mps 743 mmHg 27%
    16:00 +22°C° 0 mm 1 mps 743 mmHg 30%
    17:00 +21°C° 0 mm 1 mps 742 mmHg 32%
    18:00 +20°C° 0 mm 1 mps 743 mmHg 35%
    19:00 +18°C° 0 mm 1 mps 743 mmHg 37%
    20:00 +16°C° 0 mm 1 mps 743 mmHg 40%
    21:00 +16°C° 0 mm 1 mps 743 mmHg 41%
    22:00 +15°C° 0 mm 1 mps 743 mmHg 42%
    23:00 +15°C° 0 mm 1 mps 744 mmHg 44%

    30 October, Wednesday

    Time Temperature Precipitation Wind Pressure Humidity
    00:00 +15°C° 0 mm 1 mps 744 mmHg 44%
    01:00 +14°C° 0 mm 1 mps 743 mmHg 45%
    02:00 +14°C° 0 mm 1 mps 743 mmHg 45%
    03:00 +14°C° 0 mm 1 mps 743 mmHg 45%
    04:00 +13°C° 0 mm 1 mps 743 mmHg 45%
    05:00 +13°C° 0 mm 1 mps 743 mmHg 45%
    06:00 +14°C° 0 mm 1 mps 743 mmHg 44%
    07:00 +14°C° 0 mm 1 mps 743 mmHg 42%
    08:00 +14°C° 0 mm 1 mps 743 mmHg 41%
    09:00 +18°C° 0 mm 1 mps 743 mmHg 36%
    10:00 +19°C° 0 mm 0 mps 743 mmHg 31%
    11:00 +21°C° 0 mm 0 mps 743 mmHg 25%
    12:00 +24°C° 0 mm 1 mps 743 mmHg 23%
    13:00 +25°C° 0 mm 1 mps 742 mmHg 22%
    14:00 +26°C° 0 mm 1 mps 742 mmHg 20%
    15:00 +24°C° 0 mm 1 mps 742 mmHg 22%
    16:00 +23°C° 0 mm 1 mps 741 mmHg 25%
    17:00 +21°C° 0 mm 1 mps 741 mmHg 27%
    18:00 +20°C° 0 mm 1 mps 741 mmHg 29%
    19:00 +19°C° 0 mm 1 mps 742 mmHg 31%
    20:00 +18°C° 0 mm 1 mps 742 mmHg 33%
    21:00 +16°C° 0 mm 1 mps 742 mmHg 34%
    22:00 +16°C° 0 mm 2 mps 742 mmHg 35%
    23:00 +15°C° 0 mm 2 mps 742 mmHg 36%
    Show more